Flag for Norway Weather past 2 weeks in Kopervik, Norway

48 °F


Feels Like: 45 °F
Forecast: 51 / 54 °F
Wind: 8 mph from Southeast

Location: Haugesund / Karmoy

Current Time: Oct 9, 2015 at 3:47:33 AM

Latest Report: Oct 9, 2015 at 2:50 AM

Visibility: N/A

Pressure: 30.18 "Hg

Humidity: 87%

Dew point: 45 °F

Location of KopervikLocation

Historic Weather in Kopervik — Graph


Kopervik temperature yesterday

Maximum temperature yesterday: 54 °F (at 10:50 AM)
Minimum temperature yesterday: 48 °F (at 11:50 PM)
Average temperature yesterday: 51 °F

Past Weeks' High & Low Weather Summary

High61 °F (Sep 28, 4:20 PM)100% (Sep 24, 5:50 AM)30.69 "Hg (Sep 24, 5:50 AM)
Low39 °F (Oct 5, 3:50 AM)47% (Oct 6, 5:20 PM)29.56 "Hg (Sep 24, 4:50 PM)
Average53 °F81%30.17 "Hg
* Reported Sep 24 2:20 AM — Oct 9 2:50 AM, Kopervik, Weather by CustomWeather, © 2015

Note: Actual official high and low records may vary slightly from our data, if they occured in-between our weather recording intervals... More about our weather records


Kopervik weather history for previous 24 hours

Time TempWeatherWind HumidityBarometerVisibility
2:50 AM
Fri, Oct 9
48 °FOvercast.8 mph87%30.18 "HgN/A
2:20 AM48 °FDrizzle. Overcast.10 mph87%30.18 "HgN/A
1:50 AM48 °FLight rain. Overcast.8 mph87%30.18 "HgN/A
1:20 AM48 °FDrizzle. Mostly cloudy.10 mph87%30.18 "HgN/A
12:50 AM48 °FMostly cloudy.10 mph87%30.18 "HgN/A
12:20 AM48 °FMostly cloudy.8 mph87%30.18 "HgN/A
11:50 PM
Thu, Oct 8
48 °FLight rain. Overcast.7 mph87%30.18 "HgN/A
11:20 PM50 °FMostly cloudy.9 mph82%30.15 "HgN/A
10:50 PM50 °FPartly cloudy.12 mph76%30.15 "HgN/A
10:20 PM50 °FPassing clouds.10 mph82%30.15 "HgN/A
9:50 PM50 °FPassing clouds.9 mph82%30.12 "HgN/A
9:20 PM50 °FPassing clouds.10 mph76%30.12 "Hg5 mi
8:50 PM50 °FPassing clouds.12 mph76%30.12 "HgN/A
8:20 PM50 °FPassing clouds.13 mph76%30.09 "HgN/A
7:50 PM50 °FPartly sunny.16 mph76%30.09 "HgN/A
7:20 PM50 °FPartly sunny.16 mph76%30.09 "HgN/A
6:50 PM50 °FDrizzle. Broken clouds.18 mph76%30.07 "HgN/A
6:20 PM52 °FPartly sunny.23 mph72%30.07 "HgN/A
5:50 PM52 °FPartly sunny.22 mph72%30.07 "HgN/A
5:20 PM52 °FPartly sunny.23 mph72%30.04 "HgN/A
4:50 PM54 °FMore clouds than sun.24 mph67%30.04 "HgN/A
4:20 PM54 °FSprinkles. Partly sunny.21 mph67%30.04 "HgN/A
3:50 PM54 °FPartly sunny.24 mph67%30.04 "HgN/A
3:20 PM54 °FBroken clouds.23 mph67%30.04 "HgN/A
2:50 PM52 °FDrizzle. Broken clouds.24 mph72%30.01 "HgN/A
2:20 PM52 °FBroken clouds.24 mph77%30.01 "HgN/A
1:50 PM50 °FDrizzle. Broken clouds.28 mph76%30.01 "HgN/A
1:20 PM54 °FLight rain. Broken clouds.25 mph63%30.01 "HgN/A
12:50 PM54 °FSunny.25 mph63%30.01 "Hg10 mi
12:20 PM54 °FSunny.24 mph63%30.01 "Hg10 mi
11:50 AM54 °FPartly sunny.25 mph63%29.98 "HgN/A
11:20 AM52 °FPartly sunny.22 mph67%29.98 "HgN/A
10:50 AM54 °FSunny.20 mph63%29.98 "Hg10 mi
10:20 AM52 °FSunny.21 mph67%29.98 "Hg10 mi
9:50 AM52 °FSunny.20 mph67%29.98 "Hg10 mi
9:20 AM52 °FSunny.21 mph67%29.98 "Hg10 mi
8:50 AM52 °FClear.18 mph67%29.98 "Hg10 mi
8:20 AM50 °FPassing clouds.18 mph71%29.95 "HgN/A
7:50 AM52 °FPassing clouds.22 mph67%29.95 "HgN/A
7:20 AM50 °FPartly cloudy.20 mph71%29.95 "HgN/A
6:50 AM52 °FPartly cloudy.23 mph67%29.95 "HgN/A
5:20 AM52 °FOvercast.20 mph67%29.98 "HgN/A
4:50 AM52 °FOvercast.20 mph67%29.98 "HgN/A
4:20 AM50 °FOvercast.23 mph71%29.95 "HgN/A
3:50 AM50 °FLight rain. Mostly cloudy.21 mph76%29.98 "HgN/A
3:20 AM50 °FLight rain. Overcast.23 mph76%29.98 "HgN/A
Weather by CustomWeather, © 2015

See weather overviewHow to use our weather pages